SP5AP-3 Weather Reports


Display with metric or nautical units.
time (UTC)temp
F
wind
direction
speed
MPH
gust
MPH
rain 1hr
in
rain 24hr
in
rain mn
in
humidity
%
barometer
mb
20260507051208 59 310 1.0 1.0 0.00 0.00 0.00 8 1006.7
20260507050708 60 0 0.0 0.0 0.00 0.00 0.00 8 1006.5
20260507050208 60 0 0.0 0.0 0.00 0.00 0.00 8 1006.7
20260507045707 60 0 0.0 0.0 0.00 0.00 0.00 8 1006.5
20260507045207 59 330 0.0 1.0 0.00 0.00 0.00 8 1006.5
20260507044707 59 0 0.0 0.0 0.00 0.00 0.00 8 1006.4
20260507044206 59 0 0.0 0.0 0.00 0.00 0.00 8 1006.4
20260507043706 59 0 0.0 0.0 0.00 0.00 0.00 8 1006.3
20260507043206 58 0 0.0 0.0 0.00 0.00 0.00 8 1006.0
20260507042705 58 0 0.0 0.0 0.00 0.00 0.00 8 1005.9
20260507042205 58 0 0.0 0.0 0.00 0.00 0.00 8 1006.1
20260507041705 58 0 0.0 0.0 0.00 0.00 0.00 8 1005.9
20260507041204 58 0 0.0 0.0 0.00 0.00 0.00 8 1006.0
20260507040704 58 0 0.0 0.0 0.00 0.00 0.00 8 1005.8
20260507040204 58 0 0.0 0.0 0.00 0.00 0.00 8 1006.0
20260507035703 58 0 0.0 0.0 0.00 0.00 0.00 8 1005.8
20260507035203 58 0 0.0 0.0 0.00 0.00 0.00 8 1006.0
20260507034703 58 0 0.0 0.0 0.00 0.00 0.00 8 1005.8
20260507034202 58 0 0.0 0.0 0.00 0.00 0.00 8 1005.8
20260507033702 57 0 0.0 0.0 0.00 0.00 0.00 8 1005.8
20260507033202 58 0 0.0 0.0 0.00 0.00 0.00 8 1005.7
20260507032701 57 0 0.0 0.0 0.00 0.00 0.00 8 1005.5
20260507032201 57 0 0.0 0.0 0.00 0.00 0.00 8 1005.6
20260507031701 57 0 0.0 0.0 0.00 0.00 0.00 8 1005.5
20260507031200 58 0 0.0 0.0 0.00 0.00 0.00 8 1005.4
20260507030700 57 0 0.0 0.0 0.00 0.00 0.00 8 1005.4
20260507030200 57 0 0.0 0.0 0.00 0.00 0.00 8 1005.3
20260507025659 57 0 0.0 0.0 0.00 0.00 0.00 8 1005.3
20260507025159 57 0 0.0 0.0 0.00 0.00 0.00 8 1005.3
20260507024659 57 0 0.0 0.0 0.00 0.00 0.00 8 1005.5
20260507024158 57 0 0.0 0.0 0.00 0.00 0.00 8 1005.3
20260507023658 58 0 0.0 0.0 0.00 0.00 0.00 8 1005.3
20260507023158 58 0 0.0 0.0 0.00 0.00 0.00 8 1005.2
20260507022657 58 0 0.0 0.0 0.00 0.00 0.00 8 1005.2
20260507022157 58 0 0.0 0.0 0.00 0.00 0.00 8 1005.3
20260507021657 58 0 0.0 0.0 0.00 0.00 0.00 8 1005.2
20260507021156 58 0 0.0 0.0 0.00 0.00 0.00 8 1005.1
20260507020656 58 0 0.0 0.0 0.00 0.00 0.00 8 1005.4
20260507020156 58 0 0.0 0.0 0.00 0.00 0.00 8 1005.5
20260507015655 58 0 0.0 0.0 0.00 0.00 0.00 8 1005.3
20260507015155 59 32 0.0 1.0 0.00 0.00 0.00 8 1005.3
20260507014655 59 0 0.0 0.0 0.00 0.00 0.00 8 1005.2
20260507014154 59 0 0.0 0.0 0.00 0.00 0.00 8 1005.3
20260507013654 59 0 0.0 0.0 0.00 0.00 0.00 8 1005.4
20260507013154 59 0 0.0 0.0 0.00 0.00 0.00 8 1005.6
20260507012653 59 0 0.0 0.0 0.00 0.00 0.00 8 1005.7
20260507012153 59 0 0.0 0.0 0.00 0.00 0.00 8 1005.5
20260507011653 60 0 0.0 0.0 0.00 0.00 0.00 8 1005.5
20260507011152 60 0 0.0 0.0 0.00 0.00 0.00 8 1005.3
20260507010152 60 309 1.0 1.0 0.00 0.00 0.00 8 1005.0
20260507005651 60 0 0.0 1.0 0.00 0.00 0.00 8 1005.2
20260507005151 60 0 0.0 0.0 0.00 0.00 0.00 8 1005.0
20260507004651 60 0 0.0 0.0 0.00 0.00 0.00 8 1005.3
20260507004150 60 351 0.0 1.0 0.00 0.00 0.00 7 1005.3
20260507003650 60 241 1.0 2.0 0.00 0.00 0.00 7 1005.4
20260507003150 61 0 0.0 0.0 0.00 0.00 0.00 7 1005.6
20260507002649 61 226 2.0 2.0 0.00 0.00 0.00 7 1005.2
20260507002149 61 0 0.0 0.0 0.00 0.00 0.00 7 1005.3
20260507001649 61 24 0.0 1.0 0.00 0.00 0.00 7 1005.3
20260507001148 62 299 1.0 2.0 0.00 0.00 0.00 7 1005.3
20260507000648 62 5 1.0 2.0 0.00 0.00 0.00 7 1005.0
20260507000148 63 129 0.0 1.0 0.00 0.00 0.00 7 1005.1
20260506235647 63 348 0.0 1.0 0.00 0.00 0.00 6 1005.2
20260506235147 63 0 0.0 0.0 0.00 0.00 0.00 6 1005.1
20260506234646 63 0 0.0 0.0 0.00 0.00 0.00 6 1004.9
20260506234146 63 0 0.0 0.0 0.00 0.00 0.00 6 1004.9
20260506233646 63 0 0.0 0.0 0.00 0.00 0.00 6 1004.6
20260506233146 63 0 0.0 0.0 0.00 0.00 0.00 6 1004.8
20260506232645 64 0 0.0 0.0 0.00 0.00 0.00 6 1004.7
20260506232145 64 0 0.0 0.0 0.00 0.00 0.00 6 1004.6
20260506231645 64 0 0.0 0.0 0.00 0.00 0.00 6 1004.6
20260506231144 63 0 0.0 0.0 0.00 0.00 0.00 6 1004.5
20260506230644 63 0 0.0 0.0 0.00 0.00 0.00 6 1004.5
20260506230144 63 0 0.0 0.0 0.00 0.00 0.00 6 1004.6
20260506225643 64 0 0.0 0.0 0.00 0.00 0.00 6 1004.8
20260506225143 64 0 0.0 0.0 0.00 0.00 0.00 6 1004.7
20260506224643 64 0 0.0 0.0 0.00 0.00 0.00 6 1005.0
20260506224142 64 0 0.0 0.0 0.00 0.00 0.00 6 1005.1
20260506223642 64 0 0.0 0.0 0.00 0.00 0.00 6 1005.1
20260506223142 64 0 0.0 0.0 0.00 0.00 0.00 6 1004.8
20260506222641 64 0 0.0 0.0 0.00 0.00 0.00 6 1005.1
20260506222141 63 0 0.0 0.0 0.00 0.00 0.00 6 1004.9
20260506221641 63 0 0.0 0.0 0.00 0.00 0.00 7 1005.0
20260506221140 63 0 0.0 0.0 0.00 0.00 0.00 7 1005.0
20260506220640 63 0 0.0 0.0 0.00 0.00 0.00 7 1004.7
20260506220140 63 0 0.0 0.0 0.00 0.00 0.00 7 1004.7
20260506215639 62 0 0.0 0.0 0.00 0.00 0.00 7 1004.7
20260506215139 62 0 0.0 0.0 0.00 0.00 0.00 7 1004.8
20260506214638 62 0 0.0 0.0 0.00 0.00 0.00 7 1004.8
20260506214138 62 0 0.0 0.0 0.00 0.00 0.00 7 1004.7
20260506213638 62 0 0.0 0.0 0.00 0.00 0.00 7 1004.6
20260506213138 62 0 0.0 0.0 0.00 0.00 0.00 7 1004.8
20260506212638 61 0 0.0 0.0 0.00 0.00 0.00 7 1004.4
20260506212137 61 0 0.0 0.0 0.00 0.00 0.00 7 1004.4
20260506211637 62 0 0.0 0.0 0.00 0.00 0.00 7 1004.5
20260506211136 62 0 0.0 0.0 0.00 0.00 0.00 7 1004.6
20260506210636 62 0 0.0 0.0 0.00 0.00 0.00 7 1004.7
20260506210136 62 0 0.0 0.0 0.00 0.00 0.00 7 1004.5
20260506205635 62 0 0.0 0.0 0.00 0.00 0.00 7 1004.6
20260506205135 62 0 0.0 0.0 0.00 0.00 0.00 7 1004.6
20260506204635 62 0 0.0 0.0 0.00 0.00 0.00 7 1004.8
20260506204134 63 0 0.0 0.0 0.00 0.00 0.00 7 1005.1
20260506203634 63 0 0.0 0.0 0.00 0.00 0.00 7 1005.2
20260506203134 63 0 0.0 0.0 0.00 0.00 0.00 7 1004.9
20260506202633 63 0 0.0 0.0 0.00 0.00 0.00 6 1005.1
20260506202133 64 0 0.0 0.0 0.00 0.00 0.00 6 1005.0
20260506201633 64 0 0.0 0.0 0.00 0.00 0.00 6 1005.0
20260506201132 64 0 0.0 0.0 0.00 0.00 0.00 6 1005.0
20260506200632 64 0 0.0 0.0 0.00 0.00 0.00 6 1004.8
20260506200132 64 0 0.0 0.0 0.00 0.00 0.00 6 1004.7
20260506195631 65 0 0.0 0.0 0.00 0.00 0.00 6 1004.8
20260506195131 65 0 0.0 0.0 0.00 0.00 0.00 6 1004.6
20260506194631 65 0 0.0 0.0 0.00 0.00 0.00 6 1004.9
20260506194130 65 0 0.0 0.0 0.00 0.00 0.00 6 1004.8
20260506193630 65 0 0.0 0.0 0.00 0.00 0.00 6 1004.9
20260506193130 65 0 0.0 0.0 0.00 0.00 0.00 6 1004.7
20260506192629 66 0 0.0 0.0 0.00 0.00 0.00 6 1004.6
20260506192129 66 0 0.0 0.0 0.00 0.00 0.00 6 1004.8
20260506191629 66 0 0.0 0.0 0.00 0.00 0.00 6 1004.7
20260506191128 66 0 0.0 0.0 0.00 0.00 0.00 6 1004.6
20260506190628 66 0 0.0 0.0 0.00 0.00 0.00 6 1004.7
20260506190128 66 0 0.0 0.0 0.00 0.00 0.00 6 1004.6
20260506185627 66 0 0.0 0.0 0.00 0.00 0.00 6 1004.5
20260506185127 67 0 0.0 0.0 0.00 0.00 0.00 6 1004.5
20260506184627 67 0 0.0 0.0 0.00 0.00 0.00 6 1004.4
20260506184126 67 0 0.0 0.0 0.00 0.00 0.00 6 1004.4
20260506183626 68 0 0.0 0.0 0.00 0.00 0.00 5 1004.5
20260506183126 68 0 0.0 0.0 0.00 0.00 0.00 5 1004.1
20260506182625 68 0 0.0 0.0 0.00 0.00 0.00 5 1004.1
20260506182125 69 0 0.0 0.0 0.00 0.00 0.00 5 1004.3
20260506181625 69 0 0.0 0.0 0.00 0.00 0.00 5 1004.2
20260506181124 70 0 0.0 0.0 0.00 0.00 0.00 5 1004.2
20260506180624 70 0 0.0 0.0 0.00 0.00 0.00 5 1004.2
20260506180124 70 0 0.0 0.0 0.00 0.00 0.00 5 1004.1
20260506175623 70 0 0.0 0.0 0.00 0.00 0.00 5 1004.1
20260506175123 71 0 0.0 0.0 0.00 0.00 0.00 5 1004.3
20260506174623 71 0 0.0 0.0 0.00 0.00 0.00 5 1004.1
20260506174122 71 0 0.0 0.0 0.00 0.00 0.00 5 1004.1
20260506173622 71 0 0.0 0.0 0.00 0.00 0.00 5 1004.1
20260506173122 71 0 0.0 0.0 0.00 0.00 0.00 5 1004.0
20260506172621 71 0 0.0 0.0 0.00 0.00 0.00 5 1003.9
20260506172121 71 0 0.0 0.0 0.00 0.00 0.00 5 1004.0
20260506171621 72 0 0.0 0.0 0.00 0.00 0.00 5 1003.8
20260506171120 72 281 1.0 1.0 0.00 0.00 0.00 5 1003.9
20260506170620 72 0 0.0 0.0 0.00 0.00 0.00 5 1003.9
20260506170120 72 241 1.0 2.0 0.00 0.00 0.00 5 1003.9
20260506165619 73 0 0.0 0.0 0.00 0.00 0.00 5 1004.0
20260506165119 73 0 0.0 0.0 0.00 0.00 0.00 4 1003.8
20260506164619 73 0 0.0 0.0 0.00 0.00 0.00 4 1003.7
20260506164118 73 0 0.0 0.0 0.00 0.00 0.00 4 1003.9
20260506163618 73 0 0.0 0.0 0.00 0.00 0.00 4 1003.6
20260506163118 73 0 0.0 0.0 0.00 0.00 0.00 4 1003.9
20260506162617 73 350 0.0 1.0 0.00 0.00 0.00 4 1003.6
20260506162117 74 0 0.0 0.0 0.00 0.00 0.00 4 1003.5
20260506161617 74 238 1.0 2.0 0.00 0.00 0.00 4 1003.6
20260506161116 74 29 0.0 1.0 0.00 0.00 0.00 4 1003.7
20260506160616 75 0 0.0 0.0 0.00 0.00 0.00 4 1003.4
20260506160116 74 0 0.0 0.0 0.00 0.00 0.00 4 1003.4
20260506155615 75 351 1.0 2.0 0.00 0.00 0.00 4 1003.5
20260506155115 75 0 0.0 0.0 0.00 0.00 0.00 4 1003.7
20260506154615 75 28 0.0 1.0 0.00 0.00 0.00 4 1003.8
20260506154114 75 333 0.0 1.0 0.00 0.00 0.00 4 1003.9
20260506153614 75 0 0.0 0.0 0.00 0.00 0.00 4 1003.8
20260506153114 75 326 0.0 1.0 0.00 0.00 0.00 4 1003.7
20260506152613 74 0 0.0 0.0 0.00 0.00 0.00 4 1003.8
20260506152113 74 0 0.0 0.0 0.00 0.00 0.00 4 1003.9
20260506151613 74 0 0.0 0.0 0.00 0.00 0.00 4 1003.8
20260506151112 75 348 0.0 1.0 0.00 0.00 0.00 4 1003.8
20260506150612 75 357 0.0 1.0 0.00 0.00 0.00 4 1003.8
20260506150112 75 0 0.0 0.0 0.00 0.00 0.00 4 1003.6
20260506145611 76 0 0.0 0.0 0.00 0.00 0.00 4 1003.9
20260506145111 76 0 0.0 0.0 0.00 0.00 0.00 4 1003.9
20260506144611 75 0 0.0 0.0 0.00 0.00 0.00 4 1003.8
20260506144110 75 1 0.0 1.0 0.00 0.00 0.00 4 1003.8
20260506143610 76 10 0.0 1.0 0.00 0.00 0.00 4 1003.7
20260506143110 76 0 0.0 0.0 0.00 0.00 0.00 4 1003.8
20260506142609 74 11 0.0 1.0 0.00 0.00 0.00 4 1003.8
20260506142109 74 302 0.0 1.0 0.00 0.00 0.00 4 1003.6
20260506141609 75 0 0.0 0.0 0.00 0.00 0.00 4 1003.9
20260506141108 75 24 0.0 1.0 0.00 0.00 0.00 4 1003.7
20260506140608 75 0 0.0 0.0 0.00 0.00 0.00 4 1003.8
20260506140108 75 0 0.0 0.0 0.00 0.00 0.00 4 1003.7
20260506135607 75 8 0.0 1.0 0.00 0.00 0.00 4 1003.7
20260506135107 75 0 0.0 0.0 0.00 0.00 0.00 4 1003.7
20260506134607 75 0 0.0 0.0 0.00 0.00 0.00 4 1003.7
20260506134106 74 0 0.0 0.0 0.00 0.00 0.00 4 1003.6
20260506133606 74 230 1.0 2.0 0.00 0.00 0.00 4 1003.7
20260506133106 75 309 0.0 1.0 0.00 0.00 0.00 4 1003.6
20260506132605 75 215 1.0 2.0 0.00 0.00 0.00 4 1003.7
20260506132105 75 0 0.0 0.0 0.00 0.00 0.00 4 1003.4
20260506131605 75 35 0.0 1.0 0.00 0.00 0.00 4 1003.6
20260506131104 75 0 0.0 0.0 0.00 0.00 0.00 4 1003.7
20260506130604 74 308 0.0 1.0 0.00 0.00 0.00 4 1003.7
20260506130104 74 0 0.0 0.0 0.00 0.00 0.00 4 1003.6
20260506125603 76 0 0.0 0.0 0.00 0.00 0.00 4 1003.6
20260506125103 75 212 0.0 1.0 0.00 0.00 0.00 4 1003.6
20260506124603 75 201 3.0 4.0 0.00 0.00 0.00 4 1004.0
20260506124102 74 75 0.0 1.0 0.00 0.00 0.00 4 1003.7
20260506123602 74 0 0.0 0.0 0.00 0.00 0.00 4 1003.9
20260506123102 74 0 0.0 0.0 0.00 0.00 0.00 4 1004.0
20260506122601 74 214 0.0 1.0 0.00 0.00 0.00 4 1003.9
20260506122101 74 0 0.0 0.0 0.00 0.00 0.00 4 1003.7
20260506121601 74 7 1.0 2.0 0.00 0.00 0.00 4 1003.8
20260506121100 74 0 0.0 0.0 0.00 0.00 0.00 4 1003.6
20260506120600 74 133 0.0 1.0 0.00 0.00 0.00 4 1003.7
20260506120100 74 14 0.0 1.0 0.00 0.00 0.00 4 1003.9
20260506115559 75 0 0.0 0.0 0.00 0.00 0.00 4 1003.6
20260506115059 75 0 0.0 0.0 0.00 0.00 0.00 4 1003.5
20260506114559 76 31 0.0 1.0 0.00 0.00 0.00 4 1003.8
20260506114058 77 0 0.0 0.0 0.00 0.00 0.00 4 1003.6
20260506113558 77 0 0.0 0.0 0.00 0.00 0.00 4 1003.4
20260506113057 75 0 0.0 0.0 0.00 0.00 0.00 4 1003.4
20260506112557 75 0 0.0 0.0 0.00 0.00 0.00 4 1004.0
20260506112057 75 8 0.0 1.0 0.00 0.00 0.00 4 1003.7
20260506111557 75 0 0.0 0.0 0.00 0.00 0.00 4 1003.6
20260506111056 75 247 2.0 4.0 0.00 0.00 0.00 4 1003.8
20260506110556 75 221 1.0 2.0 0.00 0.00 0.00 4 1003.5
20260506110055 76 179 1.0 2.0 0.00 0.00 0.00 4 1003.7
20260506105555 76 86 1.0 2.0 0.00 0.00 0.00 4 1003.6
20260506105055 75 0 0.0 0.0 0.00 0.00 0.00 4 1003.7
20260506104554 75 214 1.0 2.0 0.00 0.00 0.00 4 1003.7
20260506104054 74 19 0.0 1.0 0.00 0.00 0.00 4 1003.7
20260506103554 75 152 0.0 1.0 0.00 0.00 0.00 4 1003.3
20260506103053 75 161 0.0 2.0 0.00 0.00 0.00 4 1003.5
20260506102553 74 0 0.0 0.0 0.00 0.00 0.00 4 1003.6
20260506102053 75 37 0.0 1.0 0.00 0.00 0.00 4 1003.8
20260506101552 75 227 2.0 4.0 0.00 0.00 0.00 4 1003.4
20260506101052 75 119 0.0 1.0 0.00 0.00 0.00 4 1003.7
20260506100552 75 0 0.0 0.0 0.00 0.00 0.00 4 1003.8
20260506100052 75 350 1.0 3.0 0.00 0.00 0.00 4 1003.6
20260506095551 74 0 0.0 0.0 0.00 0.00 0.00 4 1003.9
20260506095051 74 0 0.0 0.0 0.00 0.00 0.00 4 1003.7
20260506094551 75 0 0.0 0.0 0.00 0.00 0.00 4 1003.6
20260506094050 75 0 0.0 0.0 0.00 0.00 0.00 4 1003.9
20260506093550 74 0 0.0 0.0 0.00 0.00 0.00 4 1003.7
20260506093050 74 259 2.0 3.0 0.00 0.00 0.00 4 1003.6
20260506092549 73 0 0.0 0.0 0.00 0.00 0.00 4 1003.5
20260506092049 73 0 0.0 0.0 0.00 0.00 0.00 4 1003.8
20260506091549 73 25 0.0 1.0 0.00 0.00 0.00 4 1003.5
20260506091048 73 0 0.0 0.0 0.00 0.00 0.00 4 1003.6
20260506090548 74 0 0.0 0.0 0.00 0.00 0.00 4 1003.5
20260506090048 74 0 0.0 0.0 0.00 0.00 0.00 4 1003.6
20260506085547 74 0 0.0 0.0 0.00 0.00 0.00 4 1003.6
20260506085047 75 0 0.0 0.0 0.00 0.00 0.00 4 1003.6
20260506084547 75 0 0.0 0.0 0.00 0.00 0.00 3 1003.7
20260506084046 74 343 0.0 1.0 0.00 0.00 0.00 4 1003.5
20260506083546 74 0 0.0 0.0 0.00 0.00 0.00 4 1003.4
20260506083046 75 0 0.0 0.0 0.00 0.00 0.00 4 1003.4
20260506082545 75 0 0.0 0.0 0.00 0.00 0.00 4 1003.4
20260506082045 74 0 0.0 0.0 0.00 0.00 0.00 4 1003.3
20260506081545 72 0 0.0 0.0 0.00 0.00 0.00 4 1003.3
20260506081044 71 0 0.0 0.0 0.00 0.00 0.00 4 1003.4
20260506080544 72 0 0.0 0.0 0.00 0.00 0.00 4 1003.3
20260506073042 71 18 0.0 1.0 0.00 0.00 0.00 4 1003.9
20260506072541 72 0 0.0 0.0 0.00 0.00 0.00 4 1003.9
20260506072041 72 0 0.0 0.0 0.00 0.00 0.00 4 1003.9
20260506071541 72 188 2.0 3.0 0.00 0.00 0.00 4 1003.9
20260506071040 72 7 1.0 2.0 0.00 0.00 0.00 4 1003.8
20260506070540 70 0 0.0 0.0 0.00 0.00 0.00 4 1004.0
20260506062037 66 0 0.0 0.0 0.00 0.00 0.00 5 1004.4
20260506061536 65 0 0.0 0.0 0.00 0.00 0.00 5 1004.2
20260506061036 64 0 0.0 0.0 0.00 0.00 0.00 6 1004.4
20260506060536 64 0 0.0 0.0 0.00 0.00 0.00 6 1004.5